When you browse on this site, cookies collect data to enhance your experience and personalize the content and advertising you see.
Visit our Privacy Policy to learn more. By continuing to use the site, you agree to this use of cookies and data.
EN

Hourly Weather Holhol

Today, 7 July, Tuesday

Time Temperature Precipitation Wind Pressure Humidity
00:00 +31°C° 0 mm 1 mps 708 mmHg 40%
01:00 +31°C° 0 mm 1 mps 708 mmHg 41%
02:00 +31°C° 0 mm 2 mps 708 mmHg 42%
03:00 +31°C° 0 mm 2 mps 707 mmHg 42%
04:00 +30°C° 0 mm 2 mps 708 mmHg 43%
05:00 +30°C° 0 mm 2 mps 708 mmHg 43%
06:00 +30°C° 0 mm 2 mps 708 mmHg 44%
07:00 +33°C° 0 mm 4 mps 709 mmHg 39%
08:00 +35°C° 0 mm 5 mps 709 mmHg 34%
09:00 +38°C° 0 mm 6 mps 710 mmHg 29%
10:00 +39°C° 0 mm 6 mps 710 mmHg 26%
11:00 +40°C° 0 mm 6 mps 710 mmHg 23%
12:00 +42°C° 0 mm 6 mps 710 mmHg 20%
13:00 +42°C° 0 mm 5 mps 709 mmHg 20%
14:00 +42°C° 0 mm 5 mps 708 mmHg 20%
15:00 +42°C° 0 mm 4 mps 707 mmHg 20%
16:00 +40°C° 0 mm 4 mps 707 mmHg 27%
17:00 +37°C° 0 mm 4 mps 707 mmHg 34%
18:00 +35°C° 0 mm 5 mps 707 mmHg 42%
19:00 +35°C° 0 mm 4 mps 707 mmHg 44%
20:00 +34°C° 0 mm 3 mps 708 mmHg 47%
21:00 +32°C° 0 mm 2 mps 708 mmHg 49%
22:00 +32°C° 0 mm 2 mps 708 mmHg 49%
23:00 +34°C° 0 mm 2 mps 709 mmHg 48%

Tomorrow, 8 July, Wednesday

Time Temperature Precipitation Wind Pressure Humidity
00:00 +34°C° 0 mm 2 mps 709 mmHg 47%
01:00 +32°C° 0 mm 2 mps 709 mmHg 47%
02:00 +32°C° 0 mm 1 mps 708 mmHg 46%
03:00 +32°C° 0 mm 1 mps 708 mmHg 45%
04:00 +32°C° 0 mm 1 mps 709 mmHg 45%
05:00 +32°C° 0 mm 1 mps 709 mmHg 46%
06:00 +31°C° 0 mm 1 mps 709 mmHg 46%
07:00 +34°C° 0 mm 3 mps 710 mmHg 40%
08:00 +35°C° 0 mm 4 mps 710 mmHg 34%
09:00 +37°C° 0 mm 5 mps 711 mmHg 29%
10:00 +39°C° 0 mm 5 mps 711 mmHg 26%
11:00 +40°C° 0 mm 5 mps 710 mmHg 22%
12:00 +42°C° 0 mm 5 mps 710 mmHg 19%
13:00 +42°C° 0 mm 6 mps 710 mmHg 20%
14:00 +42°C° 0 mm 6 mps 709 mmHg 20%
15:00 +44°C° 0 mm 7 mps 708 mmHg 20%
16:00 +41°C° 0 mm 6 mps 708 mmHg 24%
17:00 +40°C° 0 mm 5 mps 708 mmHg 28%
18:00 +38°C° 0 mm 4 mps 708 mmHg 32%
19:00 +37°C° 0 mm 4 mps 708 mmHg 32%
20:00 +37°C° 0 mm 5 mps 709 mmHg 32%
21:00 +36°C° 0 mm 5 mps 709 mmHg 32%
22:00 +36°C° 0 mm 4 mps 709 mmHg 33%
23:00 +35°C° 0 mm 3 mps 709 mmHg 34%

Day after tomorrow, 9 July, Thursday

Time Temperature Precipitation Wind Pressure Humidity
00:00 +35°C° 0 mm 2 mps 709 mmHg 34%
01:00 +34°C° 0 mm 2 mps 709 mmHg 36%
02:00 +33°C° 0 mm 1 mps 709 mmHg 37%
03:00 +33°C° 0 mm 1 mps 708 mmHg 39%
04:00 +32°C° 0 mm 2 mps 709 mmHg 38%
05:00 +32°C° 0 mm 2 mps 709 mmHg 38%
06:00 +33°C° 0 mm 3 mps 709 mmHg 37%
07:00 +35°C° 0 mm 4 mps 710 mmHg 34%
08:00 +36°C° 0 mm 5 mps 710 mmHg 31%
09:00 +38°C° 0 mm 6 mps 711 mmHg 28%
10:00 +40°C° 0 mm 6 mps 710 mmHg 24%
11:00 +41°C° 0 mm 5 mps 710 mmHg 21%
12:00 +42°C° 0 mm 4 mps 710 mmHg 17%
13:00 +43°C° 0 mm 4 mps 709 mmHg 17%
14:00 +44°C° 0 mm 4 mps 708 mmHg 16%
15:00 +44°C° 0 mm 4 mps 708 mmHg 15%
16:00 +43°C° 0 mm 5 mps 707 mmHg 16%
17:00 +42°C° 0 mm 6 mps 707 mmHg 17%
18:00 +41°C° 0 mm 6 mps 707 mmHg 19%
19:00 +40°C° 0 mm 5 mps 707 mmHg 20%
20:00 +38°C° 0 mm 4 mps 708 mmHg 21%
21:00 +37°C° 0 mm 3 mps 708 mmHg 23%
22:00 +37°C° 0 mm 3 mps 708 mmHg 24%
23:00 +36°C° 0 mm 3 mps 708 mmHg 25%

10 July, Friday

Time Temperature Precipitation Wind Pressure Humidity
00:00 +36°C° 0 mm 2 mps 708 mmHg 26%
01:00 +35°C° 0 mm 3 mps 708 mmHg 27%
02:00 +35°C° 0 mm 3 mps 708 mmHg 27%
03:00 +34°C° 0 mm 3 mps 707 mmHg 28%
04:00 +34°C° 0 mm 4 mps 708 mmHg 30%
05:00 +34°C° 0 mm 5 mps 708 mmHg 32%
06:00 +33°C° 0 mm 7 mps 708 mmHg 34%
07:00 +35°C° 0 mm 8 mps 709 mmHg 33%
08:00 +37°C° 0 mm 9 mps 709 mmHg 31%
09:00 +38°C° 0 mm 11 mps 710 mmHg 29%
10:00 +40°C° 0 mm 10 mps 710 mmHg 25%
11:00 +43°C° 0 mm 9 mps 709 mmHg 21%
12:00 +44°C° 0 mm 8 mps 709 mmHg 17%
13:00 +45°C° 0 mm 8 mps 709 mmHg 15%
14:00 +46°C° 0 mm 8 mps 708 mmHg 14%
15:00 +46°C° 0 mm 8 mps 707 mmHg 12%
16:00 +45°C° 0 mm 8 mps 707 mmHg 12%
17:00 +44°C° 0 mm 8 mps 707 mmHg 13%
18:00 +44°C° 0 mm 8 mps 707 mmHg 13%
19:00 +41°C° 0 mm 8 mps 707 mmHg 16%
20:00 +40°C° 0 mm 7 mps 708 mmHg 19%
21:00 +38°C° 0 mm 7 mps 708 mmHg 22%
22:00 +38°C° 0 mm 6 mps 708 mmHg 23%
23:00 +36°C° 0 mm 5 mps 708 mmHg 25%

11 July, Saturday

Time Temperature Precipitation Wind Pressure Humidity
00:00 +35°C° 0 mm 4 mps 708 mmHg 27%
01:00 +35°C° 0 mm 3 mps 708 mmHg 27%
02:00 +35°C° 0 mm 3 mps 708 mmHg 27%
03:00 +35°C° 0 mm 3 mps 708 mmHg 27%
04:00 +34°C° 0 mm 2 mps 708 mmHg 28%
05:00 +34°C° 0 mm 2 mps 709 mmHg 29%
06:00 +34°C° 0 mm 2 mps 709 mmHg 31%
07:00 +35°C° 0 mm 3 mps 710 mmHg 28%
08:00 +36°C° 0 mm 4 mps 710 mmHg 26%
09:00 +37°C° 0 mm 4 mps 710 mmHg 23%
10:00 +40°C° 0 mm 5 mps 710 mmHg 22%
11:00 +41°C° 0 mm 6 mps 710 mmHg 21%
12:00 +43°C° 0 mm 7 mps 710 mmHg 20%
13:00 +43°C° 0 mm 7 mps 709 mmHg 21%
14:00 +41°C° 0 mm 7 mps 708 mmHg 21%
15:00 +41°C° 0 mm 7 mps 707 mmHg 22%
16:00 +40°C° 0 mm 7 mps 707 mmHg 22%
17:00 +40°C° 0 mm 7 mps 707 mmHg 21%
18:00 +40°C° 0 mm 7 mps 707 mmHg 21%
19:00 +39°C° 0 mm 6 mps 708 mmHg 23%
20:00 +39°C° 0 mm 5 mps 708 mmHg 25%
21:00 +37°C° 0 mm 4 mps 708 mmHg 26%
22:00 +37°C° 0.1 mm 4 mps 708 mmHg 27%
23:00 +36°C° 0.1 mm 4 mps 708 mmHg 28%

12 July, Sunday

Time Temperature Precipitation Wind Pressure Humidity
00:00 +36°C° 0.1 mm 3 mps 708 mmHg 29%
01:00 +36°C° 0 mm 3 mps 707 mmHg 28%
02:00 +35°C° 0 mm 3 mps 707 mmHg 27%
03:00 +35°C° 0 mm 3 mps 707 mmHg 26%
04:00 +35°C° 0 mm 4 mps 707 mmHg 25%
05:00 +35°C° 0 mm 5 mps 707 mmHg 25%
06:00 +35°C° 0 mm 6 mps 708 mmHg 24%
07:00 +36°C° 0 mm 7 mps 708 mmHg 25%
08:00 +38°C° 0 mm 8 mps 709 mmHg 26%
09:00 +38°C° 0 mm 10 mps 709 mmHg 27%
10:00 +40°C° 0 mm 8 mps 709 mmHg 24%
11:00 +41°C° 0 mm 7 mps 709 mmHg 21%
12:00 +42°C° 0 mm 6 mps 709 mmHg 19%
13:00 +43°C° 0 mm 5 mps 708 mmHg 18%
14:00 +43°C° 0 mm 5 mps 708 mmHg 18%
15:00 +43°C° 0 mm 5 mps 707 mmHg 17%
16:00 +42°C° 0 mm 5 mps 707 mmHg 19%
17:00 +41°C° 0 mm 5 mps 707 mmHg 22%
18:00 +41°C° 0 mm 5 mps 707 mmHg 24%
19:00 +38°C° 0 mm 4 mps 707 mmHg 27%
20:00 +37°C° 0 mm 3 mps 707 mmHg 30%
21:00 +36°C° 0 mm 2 mps 707 mmHg 33%
22:00 +36°C° 0 mm 2 mps 707 mmHg 32%
23:00 +35°C° 0 mm 2 mps 708 mmHg 31%
Show more